Hourly Weather Barnasie

Today, 21 September, Monday

Time Temperature Precipitation Wind Pressure Humidity
00:00 +10°C° 0 mm 1 mps 708 mmHg 70%
01:00 +10°C° 0 mm 1 mps 708 mmHg 70%
02:00 +10°C° 0 mm 1 mps 708 mmHg 70%
03:00 +10°C° 0 mm 1 mps 708 mmHg 69%
04:00 +10°C° 0 mm 1 mps 708 mmHg 68%
05:00 +11°C° 0 mm 1 mps 708 mmHg 66%
06:00 +12°C° 0 mm 1 mps 709 mmHg 63%
07:00 +13°C° 0 mm 1 mps 709 mmHg 60%
08:00 +15°C° 0 mm 1 mps 709 mmHg 54%
09:00 +17°C° 0 mm 0 mps 710 mmHg 47%
10:00 +20°C° 0 mm 0 mps 710 mmHg 41%
11:00 +21°C° 0 mm 0 mps 710 mmHg 39%
12:00 +21°C° 0 mm 0 mps 710 mmHg 37%
13:00 +22°C° 0 mm 0 mps 710 mmHg 35%
14:00 +21°C° 0 mm 0 mps 710 mmHg 39%
15:00 +23°C° 0 mm 1 mps 710 mmHg 44%
16:00 +22°C° 0 mm 1 mps 709 mmHg 49%
17:00 +19°C° 0 mm 1 mps 709 mmHg 54%
18:00 +16°C° 0 mm 1 mps 709 mmHg 60%
19:00 +14°C° 0 mm 1 mps 708 mmHg 66%
20:00 +13°C° 0 mm 1 mps 708 mmHg 66%
21:00 +13°C° 0 mm 1 mps 708 mmHg 67%
22:00 +12°C° 0 mm 1 mps 708 mmHg 68%
23:00 +12°C° 0 mm 1 mps 708 mmHg 69%

Tomorrow, 22 September, Tuesday

Time Temperature Precipitation Wind Pressure Humidity
00:00 +12°C° 0 mm 1 mps 708 mmHg 70%
01:00 +12°C° 0 mm 1 mps 708 mmHg 70%
02:00 +12°C° 0 mm 1 mps 708 mmHg 70%
03:00 +11°C° 0 mm 1 mps 707 mmHg 70%
04:00 +11°C° 0 mm 1 mps 707 mmHg 71%
05:00 +12°C° 0 mm 1 mps 707 mmHg 68%
06:00 +13°C° 0 mm 1 mps 708 mmHg 66%
07:00 +14°C° 0 mm 1 mps 708 mmHg 64%
08:00 +18°C° 0 mm 1 mps 708 mmHg 56%
09:00 +20°C° 0 mm 1 mps 708 mmHg 49%
10:00 +23°C° 0 mm 1 mps 709 mmHg 42%
11:00 +24°C° 0 mm 1 mps 708 mmHg 40%
12:00 +25°C° 0 mm 1 mps 708 mmHg 39%
13:00 +25°C° 0 mm 1 mps 708 mmHg 37%
14:00 +25°C° 0 mm 1 mps 707 mmHg 41%
15:00 +24°C° 0 mm 1 mps 707 mmHg 46%
16:00 +23°C° 0 mm 1 mps 706 mmHg 50%
17:00 +20°C° 0 mm 2 mps 706 mmHg 55%
18:00 +17°C° 0 mm 2 mps 705 mmHg 60%
19:00 +15°C° 0 mm 2 mps 705 mmHg 65%
20:00 +15°C° 0 mm 2 mps 705 mmHg 66%
21:00 +14°C° 0 mm 2 mps 705 mmHg 66%
22:00 +13°C° 0 mm 2 mps 705 mmHg 66%
23:00 +13°C° 0 mm 2 mps 704 mmHg 66%

Day after tomorrow, 23 September, Wednesday

Time Temperature Precipitation Wind Pressure Humidity
00:00 +13°C° 0 mm 2 mps 704 mmHg 66%
01:00 +13°C° 0 mm 2 mps 704 mmHg 66%
02:00 +13°C° 0 mm 2 mps 704 mmHg 66%
03:00 +13°C° 0 mm 2 mps 704 mmHg 66%
04:00 +13°C° 0 mm 2 mps 703 mmHg 66%
05:00 +14°C° 0 mm 2 mps 704 mmHg 65%
06:00 +15°C° 0 mm 2 mps 704 mmHg 65%
07:00 +16°C° 0 mm 2 mps 704 mmHg 64%
08:00 +18°C° 0 mm 2 mps 704 mmHg 59%
09:00 +20°C° 0 mm 2 mps 704 mmHg 54%
10:00 +24°C° 0 mm 3 mps 704 mmHg 49%
11:00 +24°C° 0 mm 3 mps 704 mmHg 47%
12:00 +25°C° 0 mm 3 mps 704 mmHg 46%
13:00 +25°C° 0 mm 3 mps 704 mmHg 45%
14:00 +24°C° 0.1 mm 3 mps 704 mmHg 51%
15:00 +22°C° 0.1 mm 3 mps 703 mmHg 56%
16:00 +21°C° 0.1 mm 2 mps 703 mmHg 62%
17:00 +19°C° 0.2 mm 2 mps 703 mmHg 69%
18:00 +17°C° 0.2 mm 2 mps 702 mmHg 75%
19:00 +15°C° 0.2 mm 1 mps 702 mmHg 82%
20:00 +15°C° 0 mm 1 mps 702 mmHg 82%
21:00 +14°C° 0 mm 1 mps 702 mmHg 83%
22:00 +14°C° 0 mm 1 mps 702 mmHg 83%
23:00 +14°C° 0 mm 1 mps 702 mmHg 83%

24 September, Thursday

Time Temperature Precipitation Wind Pressure Humidity
00:00 +14°C° 0 mm 1 mps 702 mmHg 82%
01:00 +13°C° 0 mm 1 mps 702 mmHg 82%
02:00 +14°C° 0 mm 1 mps 702 mmHg 82%
03:00 +14°C° 0 mm 1 mps 702 mmHg 81%
04:00 +14°C° 0 mm 1 mps 702 mmHg 81%
05:00 +14°C° 0 mm 1 mps 702 mmHg 80%
06:00 +15°C° 0 mm 1 mps 702 mmHg 78%
07:00 +16°C° 0 mm 1 mps 703 mmHg 77%
08:00 +19°C° 0 mm 1 mps 703 mmHg 69%
09:00 +21°C° 0 mm 1 mps 704 mmHg 61%
10:00 +24°C° 0 mm 1 mps 704 mmHg 54%
11:00 +24°C° 0.1 mm 1 mps 704 mmHg 53%
12:00 +25°C° 0.1 mm 1 mps 704 mmHg 51%
13:00 +25°C° 0.1 mm 1 mps 704 mmHg 50%
14:00 +24°C° 0.7 mm 1 mps 704 mmHg 58%
15:00 +23°C° 0.7 mm 1 mps 704 mmHg 66%
16:00 +22°C° 0.7 mm 1 mps 704 mmHg 74%
17:00 +20°C° 0.3 mm 1 mps 704 mmHg 78%
18:00 +18°C° 0.3 mm 1 mps 704 mmHg 82%
19:00 +16°C° 0.3 mm 1 mps 704 mmHg 85%
20:00 +15°C° 0 mm 1 mps 704 mmHg 86%
21:00 +15°C° 0 mm 1 mps 704 mmHg 88%
22:00 +15°C° 0 mm 1 mps 703 mmHg 89%
23:00 +14°C° 0 mm 1 mps 703 mmHg 90%

25 September, Friday

Time Temperature Precipitation Wind Pressure Humidity
00:00 +14°C° 0 mm 1 mps 703 mmHg 90%
01:00 +14°C° 0 mm 1 mps 703 mmHg 91%
02:00 +14°C° 0 mm 2 mps 702 mmHg 91%
03:00 +13°C° 0 mm 2 mps 702 mmHg 92%
04:00 +13°C° 0 mm 2 mps 702 mmHg 92%
05:00 +14°C° 0 mm 2 mps 701 mmHg 90%
06:00 +15°C° 0 mm 2 mps 701 mmHg 88%
07:00 +14°C° 0 mm 3 mps 701 mmHg 86%
08:00 +17°C° 0 mm 3 mps 701 mmHg 77%
09:00 +20°C° 0 mm 4 mps 701 mmHg 67%
10:00 +22°C° 0 mm 5 mps 701 mmHg 57%
11:00 +22°C° 0 mm 5 mps 701 mmHg 57%
12:00 +22°C° 0 mm 5 mps 700 mmHg 57%
13:00 +22°C° 0 mm 5 mps 700 mmHg 58%
14:00 +21°C° 0 mm 5 mps 699 mmHg 61%
15:00 +21°C° 0 mm 4 mps 699 mmHg 65%
16:00 +20°C° 0 mm 4 mps 698 mmHg 68%
17:00 +19°C° 0 mm 4 mps 698 mmHg 70%
18:00 +19°C° 0 mm 4 mps 697 mmHg 72%
19:00 +18°C° 0 mm 4 mps 697 mmHg 74%
20:00 +17°C° 0.1 mm 3 mps 696 mmHg 77%
21:00 +17°C° 0.1 mm 3 mps 696 mmHg 80%
22:00 +16°C° 0.1 mm 3 mps 696 mmHg 83%
23:00 +16°C° 0.1 mm 3 mps 695 mmHg 85%

26 September, Saturday

Time Temperature Precipitation Wind Pressure Humidity
00:00 +16°C° 0.1 mm 3 mps 695 mmHg 86%
01:00 +16°C° 0.1 mm 3 mps 694 mmHg 88%
02:00 +16°C° 0.2 mm 3 mps 694 mmHg 89%
03:00 +16°C° 0.2 mm 3 mps 694 mmHg 89%
04:00 +16°C° 0.2 mm 3 mps 693 mmHg 90%
05:00 +16°C° 0.1 mm 3 mps 694 mmHg 89%
06:00 +16°C° 0.1 mm 2 mps 694 mmHg 89%
07:00 +15°C° 0.1 mm 2 mps 694 mmHg 89%
08:00 +16°C° 0.1 mm 2 mps 694 mmHg 85%
09:00 +16°C° 0.1 mm 2 mps 695 mmHg 81%
10:00 +17°C° 0.1 mm 2 mps 695 mmHg 77%
11:00 +17°C° 0.2 mm 2 mps 695 mmHg 77%
12:00 +17°C° 0.2 mm 2 mps 695 mmHg 78%
13:00 +17°C° 0.2 mm 2 mps 695 mmHg 78%
14:00 +16°C° 0.4 mm 2 mps 694 mmHg 82%
15:00 +15°C° 0.4 mm 2 mps 694 mmHg 86%
16:00 +14°C° 0.4 mm 2 mps 693 mmHg 90%
17:00 +14°C° 0.8 mm 2 mps 693 mmHg 92%
18:00 +14°C° 0.8 mm 1 mps 692 mmHg 94%
19:00 +14°C° 0.8 mm 1 mps 692 mmHg 97%
20:00 +14°C° 2.2 mm 2 mps 692 mmHg 96%
21:00 +14°C° 2.2 mm 2 mps 692 mmHg 95%
22:00 +13°C° 2.2 mm 3 mps 692 mmHg 94%
23:00 +13°C° 0.1 mm 3 mps 692 mmHg 93%
Show more